When you browse on this site, cookies collect data to enhance your experience and personalize the content and advertising you see.
Visit our Privacy Policy to learn more. By continuing to use the site, you agree to this use of cookies and data.
  • In Österreich
  • Länderverzeichnis
  • Für 7 Tage
  • Wassertemperatur
  • Wetterkarte
  • News
  • Widgets
  • user-avatar
    Anmelden

    Stündliche Wetter Bad Bleiberg

    Heute, 9 Dezember, Montag

    Zeit Temperatur Niederschläge Wind Luftdruck Luftfeuchtigkeit
    00:00 +1°C° 0 mm 2 m/S 693 mmHg 92%
    01:00 +2°C° 0 mm 1 m/S 693 mmHg 91%
    02:00 +3°C° 0 mm 1 m/S 692 mmHg 90%
    03:00 +3°C° 0 mm 1 m/S 692 mmHg 89%
    04:00 +3°C° 0 mm 1 m/S 692 mmHg 87%
    05:00 +3°C° 0.1 mm 1 m/S 691 mmHg 89%
    06:00 +2°C° 0.1 mm 0 m/S 691 mmHg 90%
    07:00 +2°C° 0.1 mm 0 m/S 691 mmHg 92%
    08:00 +3°C° 0.5 mm 0 m/S 691 mmHg 93%
    09:00 +3°C° 0.5 mm 0 m/S 691 mmHg 94%
    10:00 +3°C° 0.5 mm 0 m/S 691 mmHg 95%
    11:00 +3°C° 0.7 mm 0 m/S 690 mmHg 96%
    12:00 +3°C° 0.7 mm 0 m/S 690 mmHg 96%
    13:00 +5°C° 0.7 mm 1 m/S 689 mmHg 97%
    14:00 +4°C° 1.1 mm 1 m/S 689 mmHg 97%
    15:00 +4°C° 1.1 mm 1 m/S 689 mmHg 98%
    16:00 +4°C° 1.1 mm 1 m/S 689 mmHg 98%
    17:00 +4°C° 1 mm 1 m/S 689 mmHg 98%
    18:00 +4°C° 1 mm 1 m/S 689 mmHg 98%
    19:00 +3°C° 1 mm 1 m/S 690 mmHg 97%
    20:00 +3°C° 0.4 mm 1 m/S 690 mmHg 97%
    21:00 +3°C° 0.4 mm 1 m/S 691 mmHg 96%
    22:00 +3°C° 0.4 mm 1 m/S 691 mmHg 96%
    23:00 +3°C° 0 mm 1 m/S 692 mmHg 95%

    Morgen, 10 Dezember, Dienstag

    Zeit Temperatur Niederschläge Wind Luftdruck Luftfeuchtigkeit
    00:00 +2°C° 0 mm 1 m/S 692 mmHg 94%
    01:00 +2°C° 0 mm 1 m/S 692 mmHg 92%
    02:00 +2°C° 0 mm 1 m/S 693 mmHg 91%
    03:00 +1°C° 0 mm 1 m/S 693 mmHg 90%
    04:00 +1°C° 0 mm 1 m/S 693 mmHg 89%
    05:00 +1°C° 0 mm 1 m/S 694 mmHg 87%
    06:00 -1°C° 0 mm 2 m/S 695 mmHg 85%
    07:00 -1°C° 0 mm 2 m/S 696 mmHg 84%
    08:00 -1°C° 0 mm 2 m/S 697 mmHg 80%
    09:00 +1°C° 0 mm 2 m/S 698 mmHg 77%
    10:00 +2°C° 0 mm 2 m/S 699 mmHg 73%
    11:00 +2°C° 0 mm 2 m/S 699 mmHg 68%
    12:00 +3°C° 0 mm 2 m/S 699 mmHg 63%
    13:00 +3°C° 0 mm 2 m/S 700 mmHg 59%
    14:00 +2°C° 0 mm 2 m/S 700 mmHg 63%
    15:00 -1°C° 0 mm 2 m/S 699 mmHg 67%
    16:00 -2°C° 0 mm 2 m/S 699 mmHg 71%
    17:00 -3°C° 0 mm 2 m/S 700 mmHg 74%
    18:00 -4°C° 0 mm 2 m/S 700 mmHg 76%
    19:00 -4°C° 0 mm 2 m/S 700 mmHg 78%
    20:00 -5°C° 0 mm 2 m/S 700 mmHg 78%
    21:00 -5°C° 0 mm 2 m/S 700 mmHg 78%
    22:00 -5°C° 0 mm 2 m/S 700 mmHg 78%
    23:00 -3°C° 0 mm 1 m/S 700 mmHg 76%

    übermorgen, 11 Dezember, Mittwoch

    Zeit Temperatur Niederschläge Wind Luftdruck Luftfeuchtigkeit
    00:00 -4°C° 0 mm 1 m/S 700 mmHg 74%
    01:00 -4°C° 0 mm 1 m/S 699 mmHg 72%
    02:00 -4°C° 0 mm 1 m/S 699 mmHg 69%
    03:00 -4°C° 0 mm 1 m/S 698 mmHg 66%
    04:00 -5°C° 0 mm 0 m/S 698 mmHg 64%
    05:00 -5°C° 0 mm 0 m/S 697 mmHg 62%
    06:00 -5°C° 0 mm 0 m/S 697 mmHg 61%
    07:00 -5°C° 0 mm 0 m/S 696 mmHg 60%
    08:00 -3°C° 0 mm 0 m/S 696 mmHg 58%
    09:00 -2°C° 0 mm 0 m/S 696 mmHg 56%
    10:00 -1°C° 0 mm 0 m/S 696 mmHg 55%
    11:00 0°C° 0 mm 0 m/S 695 mmHg 54%
    12:00 +2°C° 0 mm 1 m/S 694 mmHg 54%
    13:00 +3°C° 0 mm 1 m/S 693 mmHg 54%
    14:00 +1°C° 0 mm 0 m/S 693 mmHg 59%
    15:00 -1°C° 0 mm 0 m/S 692 mmHg 65%
    16:00 -2°C° 0 mm 0 m/S 691 mmHg 70%
    17:00 -2°C° 0 mm 0 m/S 691 mmHg 67%
    18:00 -2°C° 0 mm 0 m/S 691 mmHg 65%
    19:00 -2°C° 0 mm 0 m/S 691 mmHg 62%
    20:00 -2°C° 0 mm 0 m/S 691 mmHg 61%
    21:00 -2°C° 0 mm 0 m/S 691 mmHg 60%
    22:00 -2°C° 0 mm 0 m/S 691 mmHg 59%
    23:00 -2°C° 0 mm 0 m/S 691 mmHg 60%

    12 Dezember, Donnerstag

    Zeit Temperatur Niederschläge Wind Luftdruck Luftfeuchtigkeit
    00:00 -2°C° 0 mm 0 m/S 691 mmHg 61%
    01:00 -1°C° 0 mm 0 m/S 691 mmHg 61%
    02:00 -2°C° 0.1 mm 0 m/S 691 mmHg 63%
    03:00 -2°C° 0.1 mm 0 m/S 690 mmHg 64%
    04:00 -2°C° 0.1 mm 0 m/S 690 mmHg 66%
    05:00 -2°C° 0.2 mm 0 m/S 690 mmHg 70%
    06:00 -2°C° 0.2 mm 0 m/S 691 mmHg 74%
    07:00 -2°C° 0.2 mm 0 m/S 691 mmHg 78%
    08:00 0°C° 0.2 mm 1 m/S 691 mmHg 77%
    09:00 0°C° 0.2 mm 1 m/S 691 mmHg 75%
    10:00 +1°C° 0.2 mm 1 m/S 692 mmHg 74%
    11:00 0°C° 0.4 mm 0 m/S 692 mmHg 75%
    12:00 +1°C° 0.4 mm 0 m/S 692 mmHg 77%
    13:00 +1°C° 0.4 mm 0 m/S 692 mmHg 79%
    14:00 +1°C° 0.1 mm 0 m/S 692 mmHg 83%
    15:00 0°C° 0.1 mm 0 m/S 691 mmHg 86%
    16:00 -1°C° 0.1 mm 0 m/S 691 mmHg 90%
    17:00 -1°C° 0 mm 0 m/S 692 mmHg 89%
    18:00 -2°C° 0 mm 0 m/S 692 mmHg 88%
    19:00 -2°C° 0 mm 0 m/S 692 mmHg 87%
    20:00 -1°C° 0 mm 1 m/S 691 mmHg 87%
    21:00 -2°C° 0 mm 1 m/S 691 mmHg 88%
    22:00 -2°C° 0 mm 1 m/S 690 mmHg 88%
    23:00 -2°C° 0 mm 1 m/S 690 mmHg 90%

    13 Dezember, Freitag

    Zeit Temperatur Niederschläge Wind Luftdruck Luftfeuchtigkeit
    00:00 -2°C° 0 mm 1 m/S 689 mmHg 91%
    01:00 -2°C° 0 mm 1 m/S 688 mmHg 93%
    02:00 -4°C° 0 mm 2 m/S 687 mmHg 93%
    03:00 -4°C° 0 mm 2 m/S 686 mmHg 92%
    04:00 -3°C° 0 mm 2 m/S 684 mmHg 92%
    05:00 -4°C° 0 mm 2 m/S 684 mmHg 92%
    06:00 -4°C° 0 mm 2 m/S 683 mmHg 92%
    07:00 -4°C° 0 mm 2 m/S 682 mmHg 93%
    08:00 -3°C° 0 mm 2 m/S 682 mmHg 90%
    09:00 -3°C° 0 mm 2 m/S 681 mmHg 88%
    10:00 -2°C° 0 mm 2 m/S 680 mmHg 85%
    11:00 0°C° 1.2 mm 1 m/S 680 mmHg 88%
    12:00 0°C° 1.2 mm 1 m/S 679 mmHg 90%
    13:00 0°C° 1.2 mm 1 m/S 678 mmHg 93%
    14:00 0°C° 0.6 mm 1 m/S 678 mmHg 93%
    15:00 0°C° 0.6 mm 1 m/S 679 mmHg 93%
    16:00 0°C° 0.6 mm 1 m/S 679 mmHg 94%
    17:00 0°C° 0 mm 1 m/S 680 mmHg 92%
    18:00 -1°C° 0 mm 1 m/S 681 mmHg 90%
    19:00 -1°C° 0 mm 1 m/S 681 mmHg 89%
    20:00 -1°C° 0 mm 1 m/S 682 mmHg 87%
    21:00 -2°C° 0 mm 1 m/S 683 mmHg 85%
    22:00 -2°C° 0 mm 1 m/S 683 mmHg 83%
    23:00 -2°C° 0 mm 1 m/S 684 mmHg 81%

    14 Dezember, Samstag

    Zeit Temperatur Niederschläge Wind Luftdruck Luftfeuchtigkeit
    00:00 -2°C° 0 mm 1 m/S 684 mmHg 80%
    01:00 -2°C° 0 mm 1 m/S 684 mmHg 78%
    02:00 -2°C° 0 mm 1 m/S 684 mmHg 77%
    03:00 -2°C° 0 mm 1 m/S 684 mmHg 77%
    04:00 -2°C° 0 mm 1 m/S 684 mmHg 76%
    05:00 -1°C° 0 mm 1 m/S 684 mmHg 77%
    06:00 -1°C° 0 mm 1 m/S 685 mmHg 78%
    07:00 -1°C° 0 mm 1 m/S 685 mmHg 79%
    08:00 0°C° 0.1 mm 1 m/S 685 mmHg 80%
    09:00 +1°C° 0.1 mm 1 m/S 686 mmHg 82%
    10:00 +2°C° 0.1 mm 1 m/S 686 mmHg 84%
    11:00 +3°C° 0.2 mm 1 m/S 687 mmHg 84%
    12:00 +3°C° 0.2 mm 1 m/S 687 mmHg 84%
    13:00 +4°C° 0.2 mm 1 m/S 687 mmHg 84%
    14:00 +3°C° 0 mm 1 m/S 688 mmHg 86%
    15:00 +3°C° 0 mm 1 m/S 689 mmHg 88%
    16:00 +2°C° 0 mm 1 m/S 689 mmHg 90%
    17:00 +2°C° 0 mm 1 m/S 690 mmHg 89%
    18:00 +2°C° 0 mm 1 m/S 691 mmHg 87%
    19:00 +1°C° 0 mm 1 m/S 692 mmHg 86%
    20:00 +1°C° 0 mm 1 m/S 692 mmHg 85%
    21:00 +1°C° 0 mm 1 m/S 693 mmHg 85%
    22:00 +1°C° 0 mm 1 m/S 694 mmHg 84%
    23:00 +1°C° 0 mm 1 m/S 694 mmHg 84%
    Mehr zeigen